This is the latest recevied weather packets stored in our database for station/object KO6HRZ. If no packets are shown the sender has not sent any weather packets the latest 10 day(s).
| Time | Temp. | Humidity | Pressure | Rain* | Wind** | Luminosity | Snow |
|---|---|---|---|---|---|---|---|
| 1788661517 | 24.44° C | 45% | 1011.1 hPa | 0 mm | - | 6 W/m² | - |
| 1788660914 | 25° C | 44% | 1011 hPa | 0 mm | - | 15 W/m² | - |
| 1788660313 | 25.56° C | 44% | 1011.2 hPa | 0 mm | - | 30 W/m² | - |
| 1788659712 | 25.56° C | 43% | 1011.1 hPa | 0 mm | - | 40 W/m² | - |
| 1788659107 | 26.11° C | 43% | 1011.2 hPa | 0 mm | - | 51 W/m² | - |
| 1788658504 | 26.67° C | 41% | 1011.1 hPa | 0 mm | - | 60 W/m² | - |
| 1788657900 | 26.67° C | 34% | 1011.1 hPa | 0 mm | - | 89 W/m² | - |
| 1788657295 | 27.22° C | 34% | 1011.2 hPa | 0 mm | - | 98 W/m² | - |
| 1788656691 | 27.22° C | 35% | 1011.2 hPa | 0 mm | - | 111 W/m² | - |
| 1788656087 | 27.22° C | 35% | 1011.1 hPa | 0 mm | - | 96 W/m² | - |
| 1788655485 | 27.78° C | 35% | 1011.2 hPa | 0 mm | - | 108 W/m² | - |
| 1788654881 | 27.78° C | 35% | 1011.2 hPa | 0 mm | - | 98 W/m² | - |
| 1788654276 | 27.78° C | 33% | 1011.1 hPa | 0 mm | - | 88 W/m² | - |
| 1788653673 | 28.33° C | 35% | 1011 hPa | 0 mm | - | 83 W/m² | - |
| 1788653070 | 30° C | 34% | 1011.2 hPa | 0 mm | - | 143 W/m² | - |
| 1788652464 | 30.56° C | 33% | 1011.1 hPa | 0 mm | - | 152 W/m² | - |
| 1788651860 | 30.56° C | 33% | 1011.2 hPa | 0 mm | - | 510 W/m² | - |
| 1788651256 | 30° C | 34% | 1011.2 hPa | 0 mm | - | 547 W/m² | - |
| 1788650651 | 28.89° C | 35% | 1011.3 hPa | 0 mm | - | 163 W/m² | - |
| 1788650048 | 30° C | 36% | 1011.3 hPa | 0 mm | - | 96 W/m² | - |
| 1788649448 | 31.11° C | 34% | 1011.3 hPa | 0 mm | - | 545 W/m² | - |
| 1788648848 | 31.11° C | 35% | 1011.4 hPa | 0 mm | - | 546 W/m² | - |
| 1788648245 | 30.56° C | 35% | 1011.6 hPa | 0 mm | - | 572 W/m² | - |
| 1788647643 | 30.56° C | 35% | 1011.5 hPa | 0 mm | - | 596 W/m² | - |
| 1788647042 | 30° C | 35% | 1011.6 hPa | 0 mm | - | 625 W/m² | - |
* Rain latest hour (hover to see other rain measurements)
** Current wind speed in m/s (hover to see current wind gust speed)